Clemson, SC

5:59 PM EDT on June 28, 2017 (GMT -0400)
Oconee County Regional

Weather History for KCEU - November, 2013

Change the Weather History Date:

Thursday, November 14, 2013

  Actual Average Record
Temperature  
Mean Temperature 42 °F -  
Max Temperature 57 °F 62 °F 82 °F (1931)
Min Temperature 28 °F 35 °F 23 °F (1932)
Degree Days  
Heating Degree Days 22    
Moisture  
Dew Point 23 °F    
Average Humidity 59    
Maximum Humidity 88    
Minimum Humidity 15    
Precipitation  
Precipitation 0.00 in - - ()
Sea Level Pressure  
Sea Level Pressure 30.43 in    
Wind  
Wind Speed 1 mph (South)    
Max Wind Speed 7 mph    
Max Gust Speed -    
Visibility 8 miles    
Events Fog    
Averages and records for this station are not official NWS values.
T = Trace of Precipitation, MM = Missing Value Source: NWS Daily Summary

Daily Weather History Graph

Daily Weather History Graph

Search for Another Location

Airport or City:

Trip Planner

Search our weather history database for the weather conditions in past years. The results will help you decide how hot, cold, wet, or windy it might be!

Date:

Astronomy

Nov. 14, 2013 Rise Set
Actual Time 7:04 AM EST 5:27 PM EST
Civil Twilight 6:37 AM EST 5:53 PM EST
Nautical Twilight 6:07 AM EST 6:24 PM EST
Astronomical Twilight 5:37 AM EST 6:54 PM EST
Moon 3:42 PM EST (11/14) 4:05 AM EST (11/14)
Length of Visible Light 11h 15m
Length of Day
10h 22m
Waxing Gibbous, 91% of the Moon is Illuminated
Nov 14
Waxing Gibbous
Nov 17
Full
Nov 25
Last Quarter
Dec 2
New
Dec 9
First Quarter

Hourly Weather History & Observations

Time (EST) Temp. Windchill Dew Point Humidity Pressure Visibility Wind Dir Wind Speed Gust Speed Precip Events Conditions
12:54 AM 34.0 °F - 24.1 °F 67% 30.49 in 10.0 mi Calm Calm - N/A   Clear
1:54 AM 33.1 °F - 25.0 °F 72% 30.48 in 10.0 mi Calm Calm - N/A   Clear
2:54 AM 33.1 °F - 25.0 °F 72% 30.47 in 10.0 mi Calm Calm - N/A   Clear
3:54 AM 30.0 °F - 26.1 °F 85% 30.47 in 10.0 mi Calm Calm - N/A   Partly Cloudy
4:04 AM 28.4 °F - 24.8 °F 86% 30.46 in 1.8 mi Calm Calm - N/A   Scattered Clouds
4:13 AM 28.4 °F - 24.8 °F 86% 30.46 in 3.0 mi Calm Calm - N/A   Scattered Clouds
4:54 AM 32.0 °F - 27.0 °F 82% 30.47 in 10.0 mi Calm Calm - N/A   Clear
5:54 AM 30.9 °F - 26.1 °F 82% 30.47 in 7.0 mi Calm Calm - N/A   Clear
6:29 AM 28.4 °F - 24.8 °F 86% 30.46 in 2.5 mi Calm Calm - N/A   Clear
6:42 AM 28.4 °F - 24.8 °F 86% 30.46 in 3.0 mi Calm Calm - N/A   Partly Cloudy
6:54 AM 28.0 °F - 25.0 °F 88% 30.48 in 2.0 mi Calm Calm - N/A   Mostly Cloudy
6:59 AM 28.4 °F - 24.8 °F 86% 30.46 in 1.0 mi Calm Calm - N/A   Mist
7:06 AM 28.4 °F - 24.8 °F 86% 30.46 in 0.5 mi Calm Calm - N/A Fog Light Freezing Fog
7:12 AM 28.4 °F - 24.8 °F 86% 30.46 in 1.2 mi Calm Calm - N/A   Scattered Clouds
7:20 AM 28.4 °F - 24.8 °F 86% 30.46 in 4.0 mi Calm Calm - N/A   Haze
7:54 AM 32.0 °F - 28.0 °F 85% 30.48 in 9.0 mi Calm Calm - N/A   Clear
8:54 AM 37.0 °F - 23.0 °F 57% 30.49 in 10.0 mi Calm Calm - N/A   Clear
9:54 AM 43.0 °F 40.3 °F 19.0 °F 38% 30.50 in 10.0 mi Variable 4.6 mph - N/A   Clear
10:54 AM 48.9 °F - 18.0 °F 29% 30.49 in 10.0 mi Variable 4.6 mph - N/A   Clear
11:54 AM 54.0 °F - 12.9 °F 20% 30.46 in 10.0 mi Variable 6.9 mph - N/A   Clear
12:54 PM 55.9 °F - 10.9 °F 17% 30.42 in 10.0 mi Variable 5.8 mph - N/A   Clear
1:54 PM 57.0 °F - 12.0 °F 17% 30.38 in 10.0 mi Variable 3.5 mph - N/A   Clear
2:54 PM 57.9 °F - 10.0 °F 15% 30.35 in 10.0 mi South 3.5 mph - N/A   Clear
3:54 PM 57.0 °F - 19.9 °F 24% 30.35 in 10.0 mi SSE 6.9 mph - N/A   Clear
4:54 PM 55.0 °F - 19.0 °F 24% 30.34 in 10.0 mi Calm Calm - N/A   Clear
5:54 PM 53.1 °F - 18.0 °F 25% 30.35 in 10.0 mi Calm Calm - N/A   Clear
6:54 PM 50.0 °F - 19.0 °F 29% 30.36 in 10.0 mi Calm Calm - N/A   Clear
7:54 PM 46.9 °F - 23.0 °F 39% 30.35 in 10.0 mi Calm Calm - N/A   Clear
8:54 PM 46.0 °F - 28.9 °F 51% 30.36 in 10.0 mi Calm Calm - N/A   Clear
9:54 PM 42.1 °F - 24.1 °F 49% 30.36 in 10.0 mi Calm Calm - N/A   Clear
10:54 PM 42.1 °F - 33.1 °F 70% 30.35 in 10.0 mi Calm Calm - N/A   Clear
11:54 PM 42.1 °F - 34.0 °F 73% 30.35 in 10.0 mi Calm Calm - N/A   Clear